Wind_Speed
74 75 75 75 76 76 76 75 73 70 67 64 61 59 58 58 57 58 57 54 52 52 52 53 53 53 52 51 51 51 50 50 51 52 51 51 50 50 50 50 52 52
71 70 71 73 75 77 77 75 73 71 69 68 65 61 58 56 55 54 54 52 50 49 50 51 52 52 51 51 50 50 50 50 50 51 51 51 51 51 50 49 50 49
71 71 70 71 73 74 74 74 73 72 71 71 70 66 63 60 58 56 55 54 53 51 50 50 51 51 51 50 49 50 50 49 50 51 52 52 52 52 50 49 48 49
72 71 72 73 73 72 71 72 72 72 71 73 74 71 67 65 64 63 60 58 56 55 52 50 51 52 52 50 49 49 49 50 50 50 51 52 53 53 51 50 49 49
72 71 71 71 72 72 69 68 68 70 71 72 73 73 70 68 68 67 65 63 60 57 55 52 50 51 52 51 48 48 48 49 50 50 51 51 53 53 52 51 50 49
75 75 74 73 71 70 68 65 64 67 71 72 73 73 71 71 70 68 67 67 63 59 56 54 52 50 50 51 49 47 47 48 49 50 50 50 51 53 53 51 50 50
76 77 76 76 73 70 69 66 63 64 68 72 74 74 73 72 71 68 67 67 65 61 57 56 55 53 51 51 50 49 48 48 49 49 49 49 50 51 52 52 52 51
79 79 80 80 79 76 74 73 70 68 68 69 71 72 73 72 70 69 67 66 67 66 61 57 56 56 54 52 51 51 51 51 51 50 49 49 49 50 50 51 52 52
76 78 81 83 86 86 84 83 81 79 75 72 70 70 71 71 69 68 67 67 68 68 64 59 57 56 56 54 53 53 53 53 52 51 50 49 49 49 49 48 48 48
63 66 70 76 81 86 89 90 91 90 87 82 77 74 71 69 67 66 65 65 65 65 63 60 58 57 57 56 55 55 54 55 54 53 51 50 49 48 48 47 45 44
52 56 60 64 68 72 76 80 85 90 92 91 88 85 80 76 71 67 63 61 60 60 60 59 58 58 58 57 56 56 56 56 56 54 52 49 48 47 46 46 45 43
48 50 53 56 58 60 62 65 69 75 83 87 90 90 89 86 82 76 68 62 59 59 59 59 60 60 59 57 56 56 57 57 56 55 53 49 45 44 43 42 42 42
47 48 50 51 53 55 56 59 61 64 69 76 81 85 88 89 89 85 77 70 66 64 60 59 60 61 60 58 57 58 58 58 57 56 53 48 44 42 41 40 40 41
48 48 49 50 51 52 53 55 57 60 62 66 70 74 77 80 82 85 84 78 74 70 67 62 60 60 60 59 59 60 60 59 58 55 51 46 43 42 40 39 40 41
48 48 48 49 49 50 51 52 53 55 56 58 60 62 64 67 70 77 82 81 78 73 70 68 63 59 59 59 60 61 61 59 57 54 50 46 43 42 42 42 43 43
48 47 47 47 47 47 48 48 48 48 48 50 51 51 53 56 60 67 71 73 72 68 65 66 63 59 59 59 60 61 60 58 55 51 49 46 44 43 42 43 44 46
47 46 45 45 44 44 44 43 42 43 43 42 41 40 42 46 51 58 60 61 62 62 62 62 61 59 59 59 58 58 56 55 51 49 47 46 45 44 43 44 45 46
48 46 44 42 41 40 39 38 37 38 37 34 31 33 36 40 44 50 50 51 56 59 59 60 60 60 61 60 58 56 54 52 50 49 48 47 47 47 46 46 46 48
47 46 43 40 38 36 35 33 32 32 31 28 26 28 30 32 37 42 41 42 50 56 55 55 57 59 62 62 60 57 54 52 51 50 49 48 47 45 45 46 47 48
47 45 41 38 35 33 31 28 27 27 27 26 25 24 25 26 31 36 35 35 43 50 51 49 49 53 58 61 59 57 55 53 52 50 48 46 45 43 43 45 47 48
46 44 40 36 33 30 27 26 25 26 26 26 24 21 21 25 30 33 31 32 39 45 47 46 45 46 51 55 56 56 54 52 49 48 46 45 46 44 44 45 47 48
46 44 39 35 31 27 25 24 25 26 25 25 25 21 18 20 27 30 30 31 35 38 39 40 41 44 46 49 52 52 51 48 45 44 44 43 44 44 45 47 47 46
44 43 39 34 29 26 25 24 24 25 25 24 24 23 19 16 21 27 28 28 29 30 31 34 38 42 44 47 48 47 46 45 44 44 43 42 41 42 45 47 45 42
43 42 38 33 28 25 25 25 24 24 24 23 23 24 21 16 17 23 25 24 24 26 29 32 36 39 42 44 45 44 43 44 43 44 44 43 42 43 44 44 42 39
42 40 36 31 27 25 25 25 24 24 24 22 21 23 22 17 16 21 22 21 23 26 28 31 36 40 41 41 42 42 41 41 41 41 43 44 43 41 40 38 37 37
40 37 33 29 26 25 25 24 24 23 22 21 19 21 21 18 18 20 21 23 25 25 25 29 36 41 41 40 40 40 39 40 40 40 41 41 38 35 32 31 33 34
Wind_Direction
266 269 271 275 278 279 280 278 275 276 277 275 274 274 274 273 273 271 269 268 269 272 273 272 272 272 272 272 272 272 269 266 265 265 267 268 269 270 270 270 269 265
261 264 268 272 276 277 277 274 272 273 274 274 275 274 272 270 270 271 270 269 269 271 271 270 270 270 270 270 270 270 269 267 266 266 266 266 266 266 267 268 266 264
258 260 264 268 271 273 273 271 270 271 272 272 273 273 271 269 269 270 270 271 272 272 270 268 267 267 267 266 266 267 268 267 267 266 265 265 264 263 264 264 264 263
259 261 263 265 266 265 267 268 269 270 270 270 270 271 271 271 270 269 269 270 272 272 271 268 265 263 263 264 265 265 266 266 266 266 266 265 263 262 261 261 262 262
261 262 263 263 262 261 261 264 266 268 268 268 268 268 269 270 270 269 268 269 271 271 270 268 265 263 262 264 264 264 264 265 265 264 265 265 264 262 261 260 260 260
263 263 262 261 261 262 261 259 262 264 265 264 265 266 266 266 267 267 266 267 268 269 268 267 265 264 263 264 264 263 263 263 263 263 264 265 265 264 262 260 259 259
268 265 264 263 262 264 264 262 260 261 262 261 262 263 264 264 264 264 263 263 265 267 267 265 264 264 264 264 263 262 262 262 262 263 263 264 264 264 262 260 258 258
273 269 268 267 265 265 265 264 263 262 260 260 259 259 260 261 261 261 260 261 263 265 265 263 261 261 263 264 264 262 261 261 262 263 263 263 264 264 264 261 259 258
280 276 273 271 269 267 264 264 264 264 261 259 258 257 256 256 257 257 257 258 260 261 261 260 258 259 260 261 262 262 260 260 262 263 262 262 263 264 265 264 262 261
283 281 278 275 273 271 268 265 263 263 262 259 257 256 256 254 253 253 254 255 255 256 256 256 256 256 256 258 260 261 261 261 262 263 262 260 261 263 265 267 267 267
284 281 279 277 275 273 271 268 264 261 260 258 256 255 254 254 253 251 250 251 252 253 252 253 254 253 253 254 257 259 260 260 260 260 259 258 259 262 266 269 271 273
289 285 282 280 278 276 273 271 268 263 260 258 257 255 252 252 252 252 250 249 251 252 251 249 250 251 251 251 254 256 257 257 257 256 255 255 257 261 265 269 272 275
296 293 290 287 285 282 279 276 273 269 265 261 259 257 254 252 251 250 248 247 249 252 252 249 248 249 249 249 251 252 253 253 253 252 251 251 254 258 263 268 273 276
303 300 297 294 290 287 284 280 276 273 270 266 263 260 257 255 251 247 244 243 246 249 250 250 249 249 249 249 249 249 249 248 248 247 247 248 251 254 260 268 275 278
307 304 301 297 293 289 285 282 278 275 272 270 268 265 261 257 252 246 242 240 242 246 248 249 250 248 247 249 249 248 248 246 245 245 245 246 249 254 261 268 275 280
310 307 305 300 295 290 285 282 279 277 276 274 273 270 265 259 253 246 242 240 240 241 242 245 247 246 245 246 247 247 247 245 245 244 244 246 251 259 266 271 275 280
313 311 308 303 297 291 286 283 281 281 280 279 277 273 266 261 254 245 240 239 238 237 236 238 241 242 243 244 245 245 245 244 243 243 244 249 254 260 266 270 274 279
318 316 312 305 298 291 286 284 284 285 284 280 278 275 270 266 256 244 239 238 236 233 234 234 235 237 241 242 243 243 243 243 243 244 248 252 256 261 266 269 274 279
321 319 314 306 298 292 288 287 288 289 285 277 274 276 274 270 258 244 241 241 237 234 234 235 234 236 238 241 241 241 241 242 244 248 252 255 259 263 267 271 276 279
323 321 315 305 298 293 290 289 290 291 285 272 269 272 270 265 254 244 242 243 238 236 236 236 236 236 237 239 240 240 241 243 246 250 253 256 260 263 267 273 276 277
323 321 315 305 298 294 291 288 287 288 282 268 262 266 265 257 248 243 244 243 238 236 238 238 238 237 237 238 240 241 242 244 247 251 255 257 258 261 266 272 273 274
322 321 314 304 297 294 291 288 286 286 282 269 258 257 261 254 245 242 243 241 236 236 239 240 238 236 236 239 242 243 243 244 246 250 255 257 258 260 264 267 269 272
321 319 313 303 295 292 290 289 290 289 283 272 257 251 255 253 242 241 242 239 235 234 238 240 238 236 235 238 242 245 246 247 247 249 253 257 258 261 264 265 266 270
319 317 312 303 294 291 290 289 293 292 285 274 257 247 250 247 236 237 239 233 226 228 236 240 238 237 238 239 242 246 248 250 251 251 253 256 259 260 263 263 264 269
318 315 311 303 295 292 292 292 294 293 287 276 258 246 246 240 226 228 229 224 221 228 239 241 237 238 241 242 243 245 248 250 252 252 254 257 260 260 261 261 264 269
318 315 310 304 299 296 296 297 298 296 288 275 257 245 242 232 218 218 222 224 226 231 239 240 236 236 240 243 244 245 247 249 250 251 255 260 261 260 260 262 267 269
Height
5436 5435 5435 5435 5435 5435 5435 5435 5435 5435 5436 5435 5435 5435 5435 5435 5434 5433 5432 5431 5431 5431 5432 5432 5432 5432 5432 5432 5432 5432 5433 5433 5433 5433 5433 5434 5434 5433 5434 5434 5434 5434
5426 5424 5424 5424 5424 5423 5423 5423 5424 5424 5425 5425 5425 5426 5426 5426 5426 5426 5425 5424 5423 5423 5424 5424 5425 5425 5424 5424 5424 5424 5425 5425 5426 5426 5426 5426 5426 5426 5426 5426 5427 5427
5416 5415 5413 5413 5414 5413 5413 5412 5412 5412 5413 5414 5414 5415 5416 5417 5417 5417 5417 5417 5416 5416 5416 5416 5417 5417 5416 5416 5416 5416 5417 5418 5418 5418 5418 5419 5419 5419 5419 5419 5420 5421
5406 5405 5404 5403 5403 5403 5403 5402 5402 5401 5401 5402 5403 5403 5405 5407 5407 5408 5408 5408 5408 5408 5408 5408 5409 5409 5408 5408 5409 5409 5410 5410 5410 5410 5411 5411 5412 5412 5412 5412 5412 5413
5396 5395 5394 5393 5392 5392 5391 5391 5391 5390 5390 5390 5390 5392 5394 5396 5397 5398 5398 5399 5399 5399 5400 5400 5401 5401 5401 5401 5401 5402 5403 5403 5403 5403 5404 5404 5404 5404 5404 5405 5405 5405
5387 5385 5383 5382 5381 5380 5380 5380 5379 5379 5379 5379 5379 5380 5382 5384 5386 5387 5388 5388 5389 5390 5390 5391 5392 5392 5393 5393 5394 5395 5395 5396 5396 5396 5397 5397 5397 5397 5397 5398 5398 5398
5375 5374 5372 5370 5369 5368 5368 5369 5369 5368 5368 5368 5368 5370 5370 5371 5374 5376 5377 5378 5379 5380 5380 5381 5383 5383 5384 5385 5386 5387 5388 5388 5388 5389 5390 5390 5390 5390 5390 5391 5391 5391
5362 5361 5359 5357 5356 5355 5356 5357 5358 5358 5358 5357 5358 5359 5358 5360 5362 5364 5365 5367 5368 5370 5370 5371 5373 5374 5375 5377 5378 5379 5380 5380 5381 5382 5383 5383 5383 5383 5383 5383 5383 5384
5347 5345 5343 5341 5340 5340 5341 5343 5344 5346 5346 5346 5347 5348 5347 5349 5351 5352 5354 5355 5357 5359 5360 5361 5363 5364 5366 5369 5370 5371 5372 5372 5373 5375 5376 5376 5376 5376 5376 5376 5377 5377
5333 5331 5328 5326 5325 5324 5325 5326 5328 5330 5331 5333 5334 5336 5337 5338 5339 5341 5343 5344 5346 5348 5349 5350 5352 5354 5357 5359 5361 5363 5364 5364 5365 5367 5368 5369 5369 5369 5369 5370 5370 5370
5323 5320 5317 5315 5313 5311 5310 5309 5310 5312 5314 5316 5318 5321 5324 5326 5328 5331 5332 5334 5336 5337 5339 5341 5343 5345 5347 5349 5352 5354 5355 5356 5358 5359 5360 5361 5362 5362 5362 5363 5364 5363
5314 5311 5308 5305 5302 5299 5297 5295 5294 5295 5296 5298 5300 5303 5307 5312 5315 5318 5322 5324 5326 5327 5329 5331 5333 5335 5338 5340 5342 5344 5346 5347 5349 5351 5352 5354 5355 5355 5356 5356 5357 5357
5304 5301 5297 5294 5291 5288 5286 5284 5282 5280 5280 5281 5282 5285 5289 5294 5298 5303 5309 5312 5314 5317 5320 5322 5323 5325 5328 5331 5333 5335 5336 5338 5341 5343 5344 5346 5347 5348 5348 5350 5350 5350
5294 5290 5286 5283 5280 5277 5275 5273 5270 5268 5268 5267 5268 5270 5273 5276 5281 5286 5292 5298 5302 5305 5309 5312 5314 5317 5320 5322 5324 5325 5327 5329 5332 5334 5337 5339 5340 5340 5341 5342 5343 5343
5285 5281 5277 5274 5270 5267 5265 5262 5260 5258 5257 5256 5256 5258 5259 5261 5265 5270 5275 5283 5289 5293 5297 5300 5305 5308 5311 5313 5315 5316 5318 5321 5323 5327 5329 5331 5332 5333 5334 5335 5336 5336
5278 5274 5270 5266 5262 5258 5255 5253 5251 5249 5249 5248 5247 5248 5248 5250 5253 5256 5262 5269 5276 5282 5285 5289 5294 5299 5301 5303 5305 5307 5310 5313 5316 5319 5322 5323 5325 5326 5327 5328 5329 5330
5272 5267 5263 5258 5254 5251 5248 5245 5244 5242 5241 5240 5239 5239 5239 5240 5242 5246 5252 5259 5265 5271 5275 5278 5283 5288 5291 5293 5296 5299 5302 5305 5309 5312 5314 5316 5318 5319 5320 5321 5322 5323
5264 5259 5255 5251 5247 5244 5241 5239 5238 5236 5234 5233 5233 5233 5233 5234 5235 5238 5245 5251 5257 5262 5266 5269 5274 5278 5281 5284 5287 5291 5295 5299 5302 5304 5306 5308 5310 5311 5313 5314 5315 5316
5256 5252 5248 5244 5241 5237 5235 5234 5232 5230 5229 5228 5229 5229 5229 5230 5231 5234 5240 5245 5249 5254 5257 5261 5264 5268 5270 5274 5278 5283 5288 5291 5294 5297 5299 5301 5302 5304 5305 5307 5308 5308
5249 5245 5241 5238 5235 5232 5230 5228 5227 5226 5225 5224 5224 5225 5225 5226 5228 5231 5235 5239 5243 5246 5250 5253 5257 5259 5262 5266 5271 5275 5280 5284 5287 5290 5292 5294 5295 5296 5298 5300 5300 5300
5242 5239 5235 5232 5229 5227 5225 5224 5222 5221 5220 5220 5220 5220 5221 5223 5224 5227 5231 5233 5236 5240 5243 5247 5251 5252 5255 5259 5263 5268 5273 5278 5282 5283 5285 5287 5288 5289 5291 5292 5293 5293
5236 5232 5229 5227 5224 5222 5220 5219 5218 5217 5216 5215 5215 5216 5217 5218 5220 5222 5225 5228 5231 5235 5239 5242 5244 5246 5249 5253 5258 5263 5267 5272 5276 5278 5278 5280 5281 5283 5284 5285 5286 5287
5230 5226 5223 5221 5219 5217 5216 5215 5214 5212 5211 5210 5211 5212 5212 5214 5216 5218 5221 5224 5227 5230 5233 5236 5238 5240 5245 5250 5254 5259 5262 5266 5271 5272 5271 5273 5275 5276 5277 5279 5280 5281
5225 5221 5218 5216 5215 5213 5211 5210 5209 5208 5207 5206 5207 5208 5208 5210 5212 5215 5218 5220 5223 5226 5228 5230 5233 5236 5241 5247 5250 5254 5257 5261 5264 5266 5265 5266 5268 5270 5271 5273 5275 5275
5220 5216 5213 5211 5210 5209 5207 5206 5205 5204 5203 5202 5203 5204 5205 5206 5209 5212 5215 5217 5219 5221 5224 5226 5229 5234 5239 5243 5246 5249 5253 5256 5259 5260 5260 5260 5262 5264 5266 5267 5269 5270
5215 5211 5208 5207 5206 5204 5203 5202 5201 5200 5199 5198 5199 5200 5201 5203 5206 5209 5211 5213 5215 5218 5220 5223 5227 5232 5236 5240 5243 5246 5249 5251 5253 5254 5254 5254 5256 5259 5261 5262 5263 5264